McCall, ID

3:36 AM MST on January 21, 2017 (GMT -0700)
McCall

Weather History for KMYL - September, 2013

Change the Weather History Date:

Tuesday, September 10, 2013

  Actual Average Record
Temperature  
Mean Temperature 62 °F 53 °F  
Max Temperature 81 °F 70 °F 86 °F (2011)
Min Temperature 42 °F 36 °F 22 °F (1989)
Degree Days  
Heating Degree Days 3 12  
Month to date heating degree days 34 108  
Since 1 July heating degree days 81 436  
Cooling Degree Days 0 0  
Month to date cooling degree days 3 0  
Year to date cooling degree days 183 25  
Growing Degree Days 11 (Base 50)    
Moisture  
Dew Point 40 °F    
Average Humidity 51    
Maximum Humidity 83    
Minimum Humidity 19    
Precipitation  
Precipitation 0.00 in 0.03 in 0.48 in (1949)
Month to date precipitation 0.31 0.28  
Year to date precipitation 11.88 13.32  
Sea Level Pressure  
Sea Level Pressure 29.99 in    
Wind  
Wind Speed 5 mph (NNW)    
Max Wind Speed 14 mph    
Max Gust Speed 18 mph    
Visibility 10 miles    
Events      
T = Trace of Precipitation, MM = Missing Value Source: NWS Daily Summary

Daily Weather History Graph

Daily Weather History Graph

Search for Another Location

Airport or City:

Trip Planner

Search our weather history database for the weather conditions in past years. The results will help you decide how hot, cold, wet, or windy it might be!

Date:

Astronomy

Sep. 10, 2013 Rise Set
Actual Time 7:17 AM MDT 8:04 PM MDT
Civil Twilight 6:47 AM MDT 8:33 PM MDT
Nautical Twilight 6:12 AM MDT 9:08 PM MDT
Astronomical Twilight 5:35 AM MDT 9:45 PM MDT
Moon 1:03 PM MDT (9/10) 10:54 PM MDT (9/10)
Length of Visible Light 13h 45m
Length of Day
12h 46m
Waxing Crescent, 29% of the Moon is Illuminated
Sep 10
Waxing Crescent
Sep 12
First Quarter
Sep 19
Full
Sep 26
Last Quarter
Oct 4
New

Hourly Weather History & Observations

Time (MDT) Temp. Dew Point Humidity Pressure Visibility Wind Dir Wind Speed Gust Speed Precip Events Conditions
12:51 AM 60.1 °F 43.0 °F 53% 29.97 in 10.0 mi NNE 9.2 mph - N/A   Clear
1:51 AM 59.0 °F 43.0 °F 55% 29.97 in 10.0 mi NNE 8.1 mph - N/A   Clear
2:51 AM 57.9 °F 43.0 °F 58% 29.96 in 10.0 mi NNE 9.2 mph - N/A   Clear
3:51 AM 50.0 °F 42.1 °F 74% 30.10 in 10.0 mi North 4.6 mph - N/A   Clear
4:51 AM 48.9 °F 41.0 °F 74% 29.99 in 10.0 mi North 3.5 mph - N/A   Clear
5:51 AM 46.0 °F 39.9 °F 79% 30.00 in 10.0 mi Calm Calm - N/A   Clear
6:51 AM 44.1 °F 39.0 °F 82% 30.01 in 10.0 mi Calm Calm - N/A   Clear
7:51 AM 42.1 °F 37.9 °F 85% 30.04 in 10.0 mi Calm Calm - N/A   Clear
8:51 AM 50.0 °F 42.1 °F 74% 30.04 in 10.0 mi Calm Calm - N/A   Clear
9:51 AM 57.9 °F 45.0 °F 62% 30.03 in 10.0 mi South 3.5 mph - N/A   Clear
10:51 AM 63.0 °F 44.1 °F 50% 30.02 in 10.0 mi Variable 4.6 mph - N/A   Clear
11:51 AM 66.9 °F 41.0 °F 39% 30.01 in 10.0 mi Variable 3.5 mph - N/A   Clear
12:51 PM 73.0 °F 37.0 °F 27% 29.99 in 10.0 mi Variable 4.6 mph - N/A   Clear
1:51 PM 75.0 °F 36.0 °F 24% 29.97 in 10.0 mi South 4.6 mph - N/A   Clear
2:51 PM 78.1 °F 36.0 °F 22% 29.95 in 10.0 mi Variable 4.6 mph - N/A   Clear
3:51 PM 80.1 °F 36.0 °F 20% 29.95 in 10.0 mi Variable 4.6 mph - N/A   Clear
4:51 PM 80.1 °F 37.0 °F 21% 29.94 in 10.0 mi West 9.2 mph - N/A   Clear
5:51 PM 80.1 °F 37.0 °F 21% 29.94 in 10.0 mi West 8.1 mph 18.4 mph N/A   Clear
6:51 PM 78.1 °F 32.0 °F 19% 29.96 in 10.0 mi WNW 9.2 mph - N/A   Clear
7:51 PM 73.0 °F 33.1 °F 23% 29.98 in 10.0 mi WNW 6.9 mph - N/A   Clear
8:51 PM 71.1 °F 39.9 °F 32% 29.98 in 10.0 mi North 5.8 mph - N/A   Clear
9:51 PM 69.1 °F 41.0 °F 36% 29.98 in 10.0 mi North 8.1 mph - N/A   Clear
10:51 PM 66.9 °F 43.0 °F 42% 29.99 in 10.0 mi North 5.8 mph - N/A   Clear
11:51 PM 59.0 °F 42.1 °F 53% 30.01 in 10.0 mi Calm Calm - N/A   Clear